Waarnemingen

Advertentie
Mijn weer
Haparanda A, Zweden (2197): temperatuur & dauwpunt: 14.10.2020 19:00:00 - 20.10.2020 19:00:00 (CEST)Haparanda A, Zweden (2197): windsnelheid & windstoten: 14.10.2020 19:00:00 - 20.10.2020 19:00:00 (CEST)Haparanda A, Zweden (2197): windrichting: 14.10.2020 19:00:00 - 20.10.2020 19:00:00 (CEST)Haparanda A, Zweden (2197): luchtdruk: 14.10.2020 19:00:00 - 20.10.2020 19:00:00 (CEST)Haparanda A, Zweden (2197): zicht: 14.10.2020 19:00:00 - 20.10.2020 19:00:00 (CEST)Haparanda A, Zweden (2197): neerslag: 14.10.2020 19:00:00 - 20.10.2020 19:00:00 (CEST)
Datum & Tijd tt [°C] td [°C] ff [km/u] ff [kn] fx [km/u] fx [kn] dd ppp [hPa] vv [km] rr [mm]
20.10.2020 19:00:00 -4,7 -5,2 6 4 14 7 N 1018,1 40 0,0
20.10.2020 18:00:00 -4,4 -4,8 6 3 - - N 1017,9 32 0,0
20.10.2020 17:00:00 -4,3 -4,8 6 3 13 7 N 1018,1 11 0,0
20.10.2020 16:00:00 -4,3 -5,0 7 4 18 10 N 1018,3 33 0,0
20.10.2020 15:00:00 -3,7 -4,7 4 2 14 8 N 1018,3 22 0,0
20.10.2020 14:00:00 -3,6 -4,6 8 4 17 9 N 1018,2 50 0,0
20.10.2020 13:00:00 -3,6 -4,6 8 4 16 9 N 1017,9 50 0,0
20.10.2020 12:00:00 -3,9 -4,7 9 5 20 11 N 1017,9 50 0,0
20.10.2020 11:00:00 -3,9 -4,7 9 5 17 9 N 1017,7 4,3 0,0
20.10.2020 10:00:00 -3,9 -4,4 8 4 19 10 N 1017,4 32 0,0
20.10.2020 09:00:00 -3,8 -4,3 8 5 18 10 N 1017,2 23 0,0
20.10.2020 08:00:00 -4,0 -4,5 9 5 18 10 N 1016,9 50 0,0
20.10.2020 07:00:00 -3,7 -4,2 6 3 14 8 N 1016,5 18 0,0
20.10.2020 06:00:00 -3,5 -3,9 8 4 20 11 NNO 1016,3 16 0,1
20.10.2020 05:00:00 -3,8 -4,2 10 5 23 12 N 1016,2 50 0,0
20.10.2020 04:00:00 -3,8 -4,5 12 7 27 14 N 1016,1 50 0,0
20.10.2020 03:00:00 -3,7 -4,2 14 8 29 16 N 1015,9 50 0,0
20.10.2020 02:00:00 -3,7 -4,2 8 5 16 9 N 1015,7 50 0,0
20.10.2020 01:00:00 -3,5 -4,0 9 5 18 10 N 1015,3 50 0,0
20.10.2020 00:00:00 -3,7 -4,2 8 4 17 9 NNW 1014,9 50 0,0
19.10.2020 23:00:00 -2,9 -3,4 8 4 20 11 N 1014,8 50 0,0
19.10.2020 22:00:00 -2,3 -2,9 11 6 23 12 N 1014,5 50 0,0
19.10.2020 21:00:00 -2,0 -2,6 13 7 24 13 N 1013,8 50 0,0
19.10.2020 20:00:00 -1,9 -2,5 13 7 23 13 N 1013,5 50 0,0
19.10.2020 19:00:00 -1,7 -2,4 10 5 21 11 N 1013,3 50 0,0
19.10.2020 18:00:00 -1,4 -2,2 11 6 24 13 N 1013,0 50 0,0
19.10.2020 17:00:00 -1,0 -2,1 11 6 26 14 N 1012,7 50 0,0
19.10.2020 16:00:00 -0,5 -1,8 14 8 31 17 N 1012,2 50 0,0
19.10.2020 15:00:00 0,2 -1,4 16 8 32 17 N 1011,4 50 0,0
19.10.2020 14:00:00 0,4 -1,2 15 8 33 18 NNO 1010,6 50 0,0
19.10.2020 13:00:00 0,8 -0,8 14 7 34 18 NNO 1009,7 50 0,0
19.10.2020 12:00:00 0,6 -0,7 16 8 33 18 NNO 1008,7 50 0,0
19.10.2020 11:00:00 0,4 -0,6 15 8 33 18 NNO 1007,9 50 0,0
19.10.2020 10:00:00 0,3 -0,4 16 9 35 19 NNO 1007,0 50 0,0
19.10.2020 09:00:00 0,3 0,0 15 8 33 18 NNO 1006,1 50 0,0
19.10.2020 08:00:00 0,3 0,2 15 8 30 16 NNO 1005,1 50 0,0
19.10.2020 07:00:00 0,3 0,2 15 8 33 18 NNO 1004,5 11 0,2
19.10.2020 06:00:00 0,3 0,2 14 7 32 17 NNO 1003,7 6 0,1
19.10.2020 05:00:00 0,3 0,2 14 7 - - NNO 1002,9 5 0,2
19.10.2020 04:00:00 0,3 0,2 15 8 33 18 NNO 1002,0 5 0,1
19.10.2020 03:00:00 0,3 0,2 14 8 38 20 NNO 1001,1 7 0,0
19.10.2020 02:00:00 0,2 0,1 14 8 30 16 NNO 1000,2 36 0,2
19.10.2020 01:00:00 0,2 0,1 16 9 33 18 NNO 999,3 2,5 0,8
19.10.2020 00:00:00 0,1 0,0 16 9 39 21 NNO 998,4 1,0 0,9
18.10.2020 23:00:00 0,0 -0,1 16 8 37 20 NNO 997,6 1,9 0,6
18.10.2020 22:00:00 -0,1 -0,2 20 11 38 21 NNO 996,9 1,9 0,7
18.10.2020 21:00:00 -0,2 -0,3 18 10 45 24 NNO 996,0 1,3 0,7
18.10.2020 20:00:00 -0,2 -0,3 20 11 42 23 NNO 995,3 0,8 1,1
18.10.2020 19:00:00 -0,4 -0,5 20 11 42 23 NNO 994,8 0,6 1,3
18.10.2020 18:00:00 -0,6 -0,7 19 10 48 26 NNO 994,7 0,6 2,1
18.10.2020 17:00:00 -0,7 -0,8 22 12 45 24 N 994,6 0,3 1,4
18.10.2020 16:00:00 -0,7 -0,8 22 12 53 28 NNO 994,7 0,5 1,8
18.10.2020 15:00:00 -0,6 -0,9 20 11 40 21 N 995,0 0,3 1,7
18.10.2020 14:00:00 -0,5 -0,6 19 10 35 19 NNO 995,7 1,1 1,1
18.10.2020 13:00:00 -0,5 -0,6 18 10 36 20 N 996,0 0,6 2,1
18.10.2020 12:00:00 -0,5 -0,6 17 9 35 19 N 996,3 0,2 2,7
18.10.2020 11:00:00 -0,4 -0,7 15 8 36 19 NNO 996,5 1,0 0,2
18.10.2020 10:00:00 -0,2 -0,3 16 8 34 19 NNO 996,3 12 0,2
18.10.2020 09:00:00 -0,2 -0,3 18 10 36 19 NNO 995,9 50 0,4
18.10.2020 08:00:00 0,0 -0,1 17 9 37 20 NNO 995,4 3,5 0,2
18.10.2020 07:00:00 0,2 0,1 18 10 36 20 NNO 994,6 35 0,5
18.10.2020 06:00:00 0,3 0,2 16 9 31 17 NNO 994,4 3,5 0,2
18.10.2020 05:00:00 0,3 0,2 13 7 27 15 NNO 994,3 3,4 0,8
18.10.2020 04:00:00 0,3 0,2 13 7 26 14 NNO 994,3 4,0 1,8
18.10.2020 03:00:00 0,3 0,2 10 5 22 12 NNO 994,5 1,4 2,8
18.10.2020 02:00:00 1,7 1,6 9 5 23 12 NNO 994,7 3,6 1,6
18.10.2020 01:00:00 2,5 2,4 11 6 20 11 N 995,0 22 0,8
18.10.2020 00:00:00 3,1 3,0 8 4 15 8 N 995,1 10 0,1
17.10.2020 23:00:00 3,2 3,1 7 4 16 8 N 995,3 18 0,0
17.10.2020 22:00:00 3,6 3,5 6 3 - - N 995,5 12 0,3
17.10.2020 21:00:00 4,0 3,7 6 3 11 6 N 995,6 6 1,3
17.10.2020 20:00:00 3,8 3,5 5 3 16 8 W 995,7 50 0,0
17.10.2020 19:00:00 4,0 3,9 6 4 14 8 N 995,9 45 0,0
17.10.2020 18:00:00 3,4 3,1 3 2 5 3 O 996,3 50 0,0
17.10.2020 17:00:00 3,3 2,9 0 0 4 2 N 996,6 50 0,0
17.10.2020 16:00:00 6,1 4,6 2 1 10 5 W 997,1 50 0,0
17.10.2020 15:00:00 6,8 5,4 0 0 6 4 N 997,8 50 0,0
17.10.2020 14:00:00 6,4 5,2 4 2 11 6 ZZW 998,3 50 0,0
17.10.2020 13:00:00 6,9 4,7 4 2 - - W 998,9 50 0,0
17.10.2020 12:00:00 7,6 4,9 6 4 16 8 NW 999,4 43 0,0
17.10.2020 11:00:00 6,9 5,7 3 2 - - ZZW 1000,1 50 0,0
17.10.2020 10:00:00 5,3 4,9 5 3 9 5 ZW 1000,7 42 0,1
17.10.2020 09:00:00 4,1 3,7 4 2 11 6 ZW 1001,6 46 0,2
17.10.2020 08:00:00 3,2 3,1 5 3 10 5 ZZW 1002,2 50 0,0
17.10.2020 07:00:00 2,4 1,8 0 0 9 5 N 1003,1 50 0,0
17.10.2020 06:00:00 3,6 2,9 5 3 12 6 WZW 1004,0 50 0,0
17.10.2020 05:00:00 2,3 1,9 5 3 9 5 WZW 1004,7 50 0,0
17.10.2020 04:00:00 3,1 2,4 5 3 10 5 WZW 1005,7 50 0,0
17.10.2020 03:00:00 3,6 2,1 4 2 11 6 WZW 1006,6 50 0,0
17.10.2020 02:00:00 4,5 2,5 5 3 15 8 W 1007,8 50 0,0
17.10.2020 01:00:00 4,4 2,9 6 3 14 7 WZW 1008,9 50 0,0
17.10.2020 00:00:00 3,8 3,4 5 3 9 5 WZW 1009,6 50 0,0
16.10.2020 23:00:00 2,7 2,6 4 2 7 4 ZW 1010,9 50 0,0
16.10.2020 22:00:00 2,6 2,2 4 2 8 4 ZZW 1011,8 50 0,0
16.10.2020 21:00:00 3,1 2,1 5 3 11 6 ZW 1012,9 50 0,0
16.10.2020 20:00:00 3,0 1,7 4 2 11 6 ZZW 1013,9 50 0,0
16.10.2020 19:00:00 3,2 1,6 4 2 13 7 WZW 1014,5 50 0,0
16.10.2020 18:00:00 3,6 2,3 6 3 10 5 WZW 1014,9 50 0,0
16.10.2020 17:00:00 4,1 2,3 4 2 9 5 WZW 1015,6 50 0,0
16.10.2020 16:00:00 4,7 2,4 3 2 13 7 WZW 1016,4 50 0,0
16.10.2020 15:00:00 5,3 1,6 6 3 14 8 W 1017,0 50 0,0
16.10.2020 14:00:00 5,6 2,4 2 1 6 3 ZW 1017,4 50 0,0
16.10.2020 13:00:00 4,5 2,4 3 2 9 5 ZW 1018,1 50 0,0
16.10.2020 12:00:00 3,5 1,9 3 2 15 8 W 1018,5 50 0,0
16.10.2020 11:00:00 2,2 1,0 5 3 13 7 W 1019,0 50 0,0
16.10.2020 10:00:00 1,2 0,6 5 3 13 7 W 1018,8 50 0,0
16.10.2020 09:00:00 -1,1 -1,4 5 3 11 6 NNW 1018,7 50 0,0
16.10.2020 08:00:00 -1,7 -2,0 7 4 14 8 WNW 1018,5 50 0,0
16.10.2020 07:00:00 -1,7 -2,1 6 3 13 7 NNW 1018,4 50 0,0
16.10.2020 06:00:00 -0,7 -1,4 8 4 17 9 NW 1018,3 50 0,0
16.10.2020 05:00:00 -0,6 -1,0 7 4 14 8 NW 1018,1 50 0,0
16.10.2020 04:00:00 -0,2 -0,6 7 4 17 9 NNW 1018,0 50 0,0
16.10.2020 03:00:00 0,1 0,0 8 5 16 9 NNW 1017,9 50 0,0
16.10.2020 02:00:00 -1,4 -1,5 6 3 12 6 NW 1018,0 50 0,0
16.10.2020 01:00:00 -1,3 -1,4 5 3 11 6 NW 1018,0 50 0,0
16.10.2020 00:00:00 -1,0 -1,1 5 3 12 6 NW 1017,9 50 0,0
15.10.2020 23:00:00 -0,6 -0,9 6 3 11 6 NW 1017,7 50 0,0
15.10.2020 22:00:00 -0,4 -0,8 5 3 16 9 NNW 1017,5 50 0,0
15.10.2020 21:00:00 0,1 -0,2 7 4 13 7 NW 1017,3 50 0,0
15.10.2020 20:00:00 -0,3 -0,7 6 4 11 6 NW 1017,3 50 0,0
15.10.2020 19:00:00 0,1 -0,8 5 3 13 7 NW 1017,5 50 0,0
15.10.2020 18:00:00 1,2 -0,4 6 4 15 8 NW 1017,6 50 0,0
15.10.2020 17:00:00 2,5 0,4 7 4 13 7 NW 1017,8 50 0,0
15.10.2020 16:00:00 3,8 0,3 5 3 13 7 NW 1018,1 50 0,0
15.10.2020 15:00:00 4,6 0,0 6 3 21 12 NNW 1018,5 50 0,0
15.10.2020 14:00:00 5,2 -0,4 8 5 23 13 NNW 1018,9 50 0,0
15.10.2020 13:00:00 5,3 -0,3 10 5 23 12 NNW 1019,4 50 0,0
15.10.2020 12:00:00 5,3 0,3 8 4 20 11 NNW 1019,7 50 0,0
15.10.2020 11:00:00 4,6 1,5 5 3 16 9 NW 1020,0 50 0,0
15.10.2020 10:00:00 2,9 1,1 4 2 16 9 NW 1020,4 50 0,0
15.10.2020 09:00:00 1,5 0,3 5 3 12 7 NW 1020,6 50 0,0
15.10.2020 08:00:00 1,5 0,6 4 2 11 6 NW 1020,6 50 0,0
15.10.2020 07:00:00 1,1 0,3 6 3 14 8 NNW 1020,5 50 0,0
15.10.2020 06:00:00 0,7 0,2 7 4 15 8 NNW 1020,6 50 0,0
15.10.2020 05:00:00 1,0 0,3 8 4 17 9 NNW 1020,2 50 0,0
15.10.2020 04:00:00 2,2 0,6 10 5 24 13 NNW 1019,9 50 0,0
15.10.2020 03:00:00 1,3 1,2 10 5 21 11 NNW 1019,7 50 0,0
15.10.2020 02:00:00 -1,1 -1,4 5 3 11 6 WNW 1019,7 50 0,0
15.10.2020 01:00:00 -0,2 -0,5 4 2 16 9 W 1019,5 22 0,0
15.10.2020 00:00:00 0,2 -0,5 4 2 9 5 ZW 1019,6 50 0,0
14.10.2020 23:00:00 2,6 1,1 5 3 16 9 W 1019,4 50 0,0
14.10.2020 22:00:00 4,0 2,4 6 3 13 7 W 1019,6 50 0,0
14.10.2020 21:00:00 3,6 2,3 2 1 11 6 N 1019,8 50 0,0
14.10.2020 20:00:00 4,8 2,3 6 3 16 9 WZW 1020,2 50 0,0
14.10.2020 19:00:00 4,8 2,0 3 2 13 7 W 1020,9 50 0,0

tt = temperatuur
td = dauwpunt
ff = windsnelheid
fx = windstoten
dd = windrichting
ppp = luchtdruk
vv = zicht
rr = neerslag

Weerstations in de omgeving